Location: Unspecified
(0.0000°N, 0.0000°E)
Time: 12:25:07
(UTC+00:00)

Vanguard 1 - All Passes

Search period start: 07 October 2022 00:00
Search period end: 17 October 2022 00:00
Orbit: 649 x 3832 km, 34.2° (Epoch: 06 October)

Date Brightness Start Highest point End Pass type
(mag) Time Alt. Az. Time Alt. Az. Time Alt. Az.
07 Oct - 05:12:58 10° SSW 05:24:23 23° SSE 05:39:36 10° ESE visible
07 Oct - 07:32:48 10° SW 07:52:02 60° SE 08:14:51 10° ENE daylight
07 Oct - 09:57:03 10° WSW 10:19:47 66° NW 10:39:59 10° NE daylight
07 Oct - 12:30:35 10° W 12:47:36 26° NNW 13:00:25 10° NNE daylight
07 Oct - 20:02:16 10° NNW 20:06:58 31° NNE 20:10:54 10° E visible
07 Oct - 22:23:41 10° W 22:27:05 21° SSW 22:30:57 10° SSE night (unlit)
08 Oct - 05:33:01 10° SSW 05:46:12 29° SE 06:04:13 10° E daylight
08 Oct - 07:53:25 10° SW 08:13:23 73° SE 08:36:35 10° ENE daylight
08 Oct - 10:19:00 10° WSW 10:41:14 54° NW 11:00:34 10° NE daylight
08 Oct - 12:55:37 10° WNW 13:09:41 20° NNW 13:20:31 10° NNE daylight
08 Oct - 20:22:35 10° NW 20:27:43 60° NE 20:32:03 10° ESE visible
08 Oct - 22:46:21 10° SW 22:48:05 12° SSW 22:49:57 10° S night (unlit)
09 Oct - 03:38:54 10° SSE 03:40:26 10° SSE 03:42:05 10° SSE visible
09 Oct - 05:53:09 10° SSW 06:07:44 38° SE 06:27:58 10° E daylight
09 Oct - 08:14:15 10° SW 08:34:43 87° SE 08:57:57 10° NE daylight
09 Oct - 10:41:28 10° W 11:02:49 43° NW 11:21:03 10° NNE daylight
09 Oct - 13:21:27 10° NW 13:32:06 16° NNW 13:40:37 10° N daylight
09 Oct - 18:23:20 10° NNW 18:27:15 15° NNE 18:30:24 10° ENE visible
09 Oct - 20:43:20 10° WNW 20:48:20 69° SW 20:52:43 10° SE visible
10 Oct - 03:56:09 10° S 04:02:35 14° SSE 04:10:38 10° ESE visible
10 Oct - 06:13:23 10° SSW 06:29:03 48° SE 06:50:58 10° ENE daylight
10 Oct - 08:35:19 10° WSW 08:56:06 78° NW 09:19:02 10° NE daylight
10 Oct - 11:04:36 10° W 11:24:38 35° NNW 11:41:28 10° NNE daylight
10 Oct - 13:47:43 10° NW 13:54:49 13° NNW 14:00:46 10° N daylight
10 Oct - 18:43:00 10° NNW 18:48:30 24° NNE 18:52:31 10° E visible
10 Oct - 21:04:32 10° WNW 21:08:56 34° SW 21:12:59 10° SSE visible
11 Oct - 04:15:26 10° S 04:24:23 20° SE 04:36:38 10° ESE visible
11 Oct - 06:33:44 10° SW 06:50:15 60° SE 07:13:20 10° ENE daylight
11 Oct - 08:56:42 10° WSW 09:17:34 65° NW 09:39:54 10° NE daylight
11 Oct - 11:28:27 10° W 11:46:45 28° NNW 12:01:53 10° NNE daylight
11 Oct - 14:13:43 10° NNW 14:17:40 11° NNW 14:21:12 10° N daylight
11 Oct - 16:43:33 10° N 16:46:07 11° N 16:48:22 10° NNE daylight
11 Oct - 19:03:13 10° NW 19:09:32 40° NNE 19:13:57 10° ESE visible
11 Oct - 21:26:23 10° W 21:29:35 18° SW 21:32:41 10° S night (unlit)
12 Oct - 04:35:07 10° SSW 04:45:52 27° SE 05:01:31 10° E visible
12 Oct - 06:54:16 10° SW 07:11:25 73° SE 07:35:14 10° ENE daylight
12 Oct - 09:18:29 10° WSW 09:39:11 53° NW 10:00:37 10° NE daylight
12 Oct - 11:53:05 10° WNW 12:09:11 23° NNW 12:22:22 10° NNE daylight
12 Oct - 14:37:58 10° NNW 14:40:31 10° N 14:42:52 10° N daylight
12 Oct - 17:02:37 10° NNW 17:07:55 16° NNE 17:11:57 10° NE daylight
12 Oct - 19:23:48 10° NW 19:30:21 71° NE 19:34:53 10° ESE visible
13 Oct - 04:55:01 10° SSW 05:07:06 35° SE 05:25:26 10° E visible
13 Oct - 07:14:58 10° SW 07:32:39 88° SE 07:56:43 10° NE daylight
13 Oct - 09:40:45 10° W 10:01:00 44° NNW 10:21:15 10° NE daylight
13 Oct - 12:18:22 10° WNW 12:31:58 18° NNW 12:43:03 10° NNE daylight
13 Oct - 14:59:24 10° NNW 15:03:14 11° N 15:06:33 10° NNE daylight
13 Oct - 17:22:30 10° NNW 17:29:29 22° NNE 17:34:18 10° ENE daylight
13 Oct - 19:44:46 10° WNW 19:50:58 63° SW 19:55:25 10° SE visible
14 Oct - 03:01:02 10° SSE 03:03:27 11° SSE 03:06:08 10° SE visible
14 Oct - 05:15:06 10° SSW 05:28:08 46° SE 05:48:35 10° ENE visible
14 Oct - 07:35:56 10° WSW 07:54:00 77° NW 08:17:56 10° NE daylight
14 Oct - 10:03:37 10° W 10:23:04 35° NNW 10:41:53 10° NNE daylight
14 Oct - 12:43:51 10° NW 12:55:00 16° NNW 13:04:07 10° NNE daylight
14 Oct - 15:19:52 10° NNW 15:25:41 13° N 15:30:20 10° NE daylight
14 Oct - 17:42:45 10° NW 17:50:50 33° NNE 17:55:57 10° E daylight
14 Oct - 20:06:12 10° WNW 20:11:28 33° SW 20:15:33 10° SSE visible
15 Oct - 03:18:32 10° S 03:24:59 16° SE 03:33:32 10° ESE visible
15 Oct - 05:35:20 10° SW 05:49:06 59° SE 06:11:06 10° ENE daylight
15 Oct - 07:57:12 10° WSW 08:15:30 64° NW 08:38:55 10° NE daylight
15 Oct - 10:27:09 10° W 10:45:29 29° NNW 11:02:34 10° NNE daylight
15 Oct - 13:08:47 10° NW 13:18:10 14° N 13:25:51 10° NNE daylight
15 Oct - 15:40:11 10° NNW 15:47:52 17° NNE 15:53:27 10° NE daylight
15 Oct - 18:03:18 10° NW 18:11:56 50° NNE 18:17:08 10° ESE visible
15 Oct - 20:28:19 10° W 20:31:59 18° SW 20:35:08 10° S visible
16 Oct - 03:37:44 10° S 03:46:11 23° SE 03:58:39 10° E visible
16 Oct - 05:55:45 10° SW 06:10:05 73° SE 06:33:05 10° ENE daylight
16 Oct - 08:18:50 10° WSW 08:37:13 52° NNW 08:59:47 10° NE daylight
16 Oct - 10:51:22 10° WNW 11:08:14 24° NNW 11:23:25 10° NNE daylight
16 Oct - 13:32:27 10° NNW 13:41:17 14° N 13:48:23 10° NNE daylight
16 Oct - 16:00:32 10° NNW 16:09:47 22° NNE 16:15:56 10° ENE daylight
16 Oct - 18:24:08 10° NW 18:32:47 81° NE 18:37:56 10° ESE visible
